�N����,�����b,�ŏ������i�x�j,���ϕ����i�x�j,�ő啗���i�x�j,�ŏ�����(m/s),���ϕ���(m/s),�ő啗��(m/s),�C��(���j,���x�i���j,�C��(hPa),�~�J��(mm),�~�J����(�b�j,�~�J���x(mm/h),�ő�~�J���x(mm/h),�~�Ђ傤��(hit/���u),�~�Ђ傤����(�b�j,�~�Ђ傤���x(hit/���uh),�ő�~�Ђ傤���x(hit/���uh),�q�[�^���x(���j,�q�[�^�[�d���iV),�d���d���iV),�Q�Ɠd���iV)
2015/05/01,00:00:01,240,259,280,0.3,0.9,1.5,20.0,72.5,1006.0,0.00,0,0.0,////,0.0,0,0.0,////,18.4,0.0,12.3,3.514
2015/05/01,00:10:01,195,240,284,0.4,0.6,0.8,20.0,74.3,1005.9,0.00,0,0.0,////,0.0,0,0.0,////,18.6,0.0,12.3,3.513
2015/05/01,00:20:01,243,253,264,1.4,2.0,2.3,20.0,74.1,1005.8,0.00,0,0.0,////,0.0,0,0.0,////,18.6,0.0,12.3,3.513
2015/05/01,00:30:01,194,240,264,1.0,1.5,2.0,19.9,72.8,1005.7,0.00,0,0.0,////,0.0,0,0.0,////,18.2,0.0,12.4,3.513
2015/05/01,00:40:01,293,305,317,2.2,2.3,2.4,19.8,72.4,1005.7,0.00,0,0.0,////,0.0,0,0.0,////,18.4,0.0,12.3,3.513
2015/05/01,00:50:01,250,270,293,0.6,0.9,1.2,19.8,72.3,1005.6,0.00,0,0.0,////,0.0,0,0.0,////,18.1,0.0,12.3,3.510
2015/05/01,01:00:01,280,285,288,3.4,3.7,3.9,19.8,72.8,1005.4,0.00,0,0.0,////,0.0,0,0.0,////,18.2,0.0,12.3,3.513
2015/05/01,01:10:01,249,272,290,1.1,1.4,1.7,19.8,73.5,1005.4,0.00,0,0.0,////,0.0,0,0.0,////,18.1,0.0,12.3,3.514
2015/05/01,01:20:01,248,273,303,2.0,2.4,2.7,19.9,72.9,1005.2,0.00,0,0.0,////,0.0,0,0.0,////,18.4,0.0,12.3,3.514
2015/05/01,01:30:01,244,264,278,2.5,2.7,3.0,19.8,73.8,1005.1,0.00,0,0.0,////,0.0,0,0.0,////,18.1,0.0,12.1,3.514
2015/05/01,01:40:01,236,252,268,1.3,2.1,2.7,19.8,75.3,1005.0,0.00,0,0.0,////,0.0,0,0.0,////,18.2,0.0,12.3,3.514
2015/05/01,01:50:01,263,264,266,2.8,3.0,3.4,19.8,75.1,1004.9,0.00,0,0.0,////,0.0,0,0.0,////,17.7,0.0,12.3,3.513
2015/05/01,02:00:01,256,262,268,1.6,2.0,2.2,19.8,73.9,1005.0,0.00,0,0.0,////,0.0,0,0.0,////,18.4,0.0,12.3,3.516
2015/05/01,02:10:01,251,268,278,1.3,1.5,1.9,19.8,74.6,1004.8,0.00,0,0.0,////,0.0,0,0.0,////,17.7,0.0,12.3,3.513
2015/05/01,02:20:01,267,282,290,2.2,2.5,2.7,19.8,73.3,1004.8,0.00,0,0.0,////,0.0,0,0.0,////,18.2,0.0,12.3,3.513
2015/05/01,02:30:01,206,224,234,0.8,1.5,2.0,19.9,74.4,1004.8,0.00,0,0.0,////,0.0,0,0.0,////,18.4,0.0,12.3,3.513
2015/05/01,02:40:01,336,003,053,0.5,1.0,1.5,19.9,74.5,1004.8,0.00,0,0.0,////,0.0,0,0.0,////,18.6,0.0,12.3,3.514
2015/05/01,02:50:01,283,292,302,2.6,3.0,3.2,19.9,75.0,1004.8,0.00,0,0.0,////,0.0,0,0.0,////,18.6,0.0,12.3,3.513
2015/05/01,03:00:01,266,275,280,3.1,3.7,4.1,19.9,73.4,1004.7,0.00,0,0.0,////,0.0,0,0.0,////,18.4,0.0,12.3,3.513
2015/05/01,03:10:01,266,286,304,2.7,2.9,3.3,19.9,74.4,1004.7,0.00,0,0.0,////,0.0,0,0.0,////,18.4,0.0,12.3,3.513
2015/05/01,03:20:01,331,357,039,0.6,0.7,0.8,19.9,75.5,1004.7,0.00,0,0.0,////,0.0,0,0.0,////,18.4,0.0,12.3,3.514
2015/05/01,03:30:01,243,257,267,1.6,2.0,2.2,19.8,74.0,1004.7,0.00,0,0.0,////,0.0,0,0.0,////,18.2,0.0,12.3,3.513
2015/05/01,03:40:01,315,318,322,3.6,4.0,4.4,19.8,74.5,1004.8,0.00,0,0.0,////,0.0,0,0.0,////,18.2,0.0,12.3,3.513
2015/05/01,03:50:01,310,344,004,0.7,0.9,1.4,19.9,73.8,1004.9,0.00,0,0.0,////,0.0,0,0.0,////,18.4,0.0,12.3,3.513
2015/05/01,04:00:01,253,276,315,0.8,1.1,1.6,19.8,73.4,1004.8,0.00,0,0.0,////,0.0,0,0.0,////,18.4,0.0,12.3,3.513
2015/05/01,04:10:01,269,282,288,4.7,5.1,5.3,19.8,72.2,1004.7,0.00,0,0.0,////,0.0,0,0.0,////,18.4,0.0,12.3,3.514
2015/05/01,04:20:01,271,276,285,0.9,1.7,2.6,19.8,72.6,1004.7,0.00,0,0.0,////,0.0,0,0.0,////,18.4,0.0,12.3,3.515
2015/05/01,04:30:01,254,257,265,2.7,2.9,3.0,19.7,73.3,1004.6,0.00,0,0.0,////,0.0,0,0.0,////,18.2,0.0,12.4,3.513
2015/05/01,04:40:01,279,303,331,3.5,4.0,4.4,19.7,74.1,1004.6,0.00,0,0.0,////,0.0,0,0.0,////,18.2,0.0,12.3,3.514
2015/05/01,04:50:01,248,252,260,1.0,1.4,1.7,19.7,71.5,1004.6,0.00,0,0.0,////,0.0,0,0.0,////,18.2,0.0,12.3,3.511
2015/05/01,05:00:01,271,306,354,0.7,0.9,1.0,19.9,73.5,1004.7,0.00,0,0.0,////,0.0,0,0.0,////,18.4,0.0,12.3,3.513
2015/05/01,05:10:01,269,275,283,1.4,2.6,4.1,19.7,72.3,1004.9,0.00,0,0.0,////,0.0,0,0.0,////,18.4,0.0,12.3,3.513
2015/05/01,05:20:01,239,275,312,0.7,1.2,1.5,19.8,73.5,1004.9,0.00,0,0.0,////,0.0,0,0.0,////,18.4,0.0,12.3,3.513
2015/05/01,05:30:01,224,253,269,1.7,2.2,2.4,19.7,72.5,1004.8,0.00,0,0.0,////,0.0,0,0.0,////,18.4,0.0,12.3,3.513
2015/05/01,05:40:01,245,248,253,1.5,1.9,2.3,19.7,73.2,1004.8,0.00,0,0.0,////,0.0,0,0.0,////,18.2,0.0,12.3,3.516
2015/05/01,05:50:01,230,243,249,3.0,3.3,3.4,19.6,73.2,1004.8,0.00,0,0.0,////,0.0,0,0.0,////,18.1,0.0,12.3,3.514
2015/05/01,06:00:01,222,224,226,1.6,1.8,2.2,19.8,73.3,1005.1,0.00,0,0.0,////,0.0,0,0.0,////,18.2,0.0,12.3,3.513
2015/05/01,06:10:01,232,240,246,3.0,3.2,3.4,20.0,69.4,1005.2,0.00,0,0.0,////,0.0,0,0.0,////,18.7,0.0,12.3,3.514
2015/05/01,06:20:01,265,275,288,4.4,5.0,5.4,20.1,69.7,1005.2,0.00,0,0.0,////,0.0,0,0.0,////,19.3,0.0,12.3,3.515
2015/05/01,06:30:01,282,297,314,2.4,3.1,4.2,20.3,71.1,1005.2,0.00,0,0.0,////,0.0,0,0.0,////,20.0,0.0,12.3,3.513
2015/05/01,06:40:01,255,260,267,3.4,3.7,4.2,20.3,70.7,1005.2,0.00,0,0.0,////,0.0,0,0.0,////,20.0,0.0,12.3,3.515
2015/05/01,06:50:01,241,245,251,1.1,1.2,1.5,20.4,71.6,1005.4,0.00,0,0.0,////,0.0,0,0.0,////,20.1,0.0,12.3,3.513
2015/05/01,07:00:01,296,303,309,3.2,4.0,4.6,20.4,72.1,1005.7,0.00,0,0.0,////,0.0,0,0.0,////,19.8,0.0,12.3,3.513
2015/05/01,07:10:01,279,292,301,2.8,3.0,3.3,20.4,70.0,1005.8,0.00,0,0.0,////,0.0,0,0.0,////,19.8,0.0,12.3,3.513
2015/05/01,07:20:01,239,261,276,0.4,0.8,1.4,20.5,69.3,1005.9,0.00,0,0.0,////,0.0,0,0.0,////,20.5,0.0,12.3,3.513
2015/05/01,07:30:01,249,257,272,2.4,2.6,2.9,20.8,70.1,1006.0,0.00,0,0.0,////,0.0,0,0.0,////,21.7,0.0,12.3,3.511
2015/05/01,07:40:01,267,277,284,2.5,3.0,3.4,21.1,68.6,1006.0,0.00,0,0.0,////,0.0,0,0.0,////,22.7,0.0,12.3,3.511
2015/05/01,07:50:01,322,346,002,1.5,2.0,2.7,21.3,66.0,1006.1,0.00,0,0.0,////,0.0,0,0.0,////,23.4,0.0,12.3,3.511
2015/05/01,08:00:01,286,295,301,4.4,4.8,5.1,21.4,66.9,1006.1,0.00,0,0.0,////,0.0,0,0.0,////,22.9,0.0,12.3,3.514
2015/05/01,08:10:01,247,249,251,3.4,3.8,4.2,21.3,66.3,1006.0,0.00,0,0.0,////,0.0,0,0.0,////,22.9,0.0,12.3,3.511
2015/05/01,08:20:01,243,286,320,1.2,1.7,2.0,21.4,68.2,1006.0,0.00,0,0.0,////,0.0,0,0.0,////,23.1,0.0,12.2,3.513
2015/05/01,08:30:01,263,270,273,1.9,2.2,2.7,21.2,68.6,1006.2,0.00,0,0.0,////,0.0,0,0.0,////,22.5,0.0,12.3,3.514
2015/05/01,08:40:01,240,246,252,1.6,1.7,1.8,21.0,68.6,1006.3,0.00,0,0.0,////,0.0,0,0.0,////,21.7,0.0,12.3,3.511
2015/05/01,08:50:01,231,251,283,1.3,1.7,2.1,20.9,69.6,1006.2,0.00,0,0.0,////,0.0,0,0.0,////,21.2,0.0,12.3,3.513
2015/05/01,09:00:01,301,311,324,1.5,2.2,2.8,21.0,70.7,1006.3,0.00,0,0.0,////,0.0,0,0.0,////,21.0,0.0,12.3,3.513
2015/05/01,09:10:01,313,316,317,2.6,3.3,3.7,21.4,68.2,1006.4,0.00,0,0.0,////,0.0,0,0.0,////,22.7,0.0,12.3,3.513
2015/05/01,09:20:01,275,287,298,1.8,2.5,3.2,21.8,65.0,1006.3,0.00,0,0.0,////,0.0,0,0.0,////,24.3,0.0,12.3,3.513
2015/05/01,09:30:01,313,331,348,2.4,2.8,3.3,21.7,63.6,1006.5,0.00,0,0.0,////,0.0,0,0.0,////,23.6,0.0,12.3,3.513
2015/05/01,09:40:01,291,301,309,2.2,2.7,3.2,21.7,64.2,1006.5,0.00,0,0.0,////,0.0,0,0.0,////,23.7,0.0,12.3,3.511
2015/05/01,09:50:01,270,288,306,1.1,1.4,1.7,22.1,63.4,1006.5,0.00,0,0.0,////,0.0,0,0.0,////,25.1,0.0,12.3,3.513
2015/05/01,10:00:01,319,323,326,1.8,2.0,2.3,22.0,62.9,1006.7,0.00,0,0.0,////,0.0,0,0.0,////,24.8,0.0,12.3,3.513
2015/05/01,10:10:01,277,310,339,0.3,0.5,0.7,22.0,63.1,1006.7,0.00,0,0.0,////,0.0,0,0.0,////,24.3,0.0,12.3,3.513
2015/05/01,10:20:01,277,283,288,2.1,3.2,3.8,22.2,64.3,1006.7,0.00,0,0.0,////,0.0,0,0.0,////,25.0,0.0,12.3,3.513
2015/05/01,10:30:01,317,322,330,2.2,2.5,2.9,22.6,62.6,1006.8,0.00,0,0.0,////,0.0,0,0.0,////,26.3,0.0,12.3,3.513
2015/05/01,10:40:01,297,300,306,1.5,1.9,2.1,22.3,63.5,1006.7,0.00,0,0.0,////,0.0,0,0.0,////,25.3,0.0,12.3,3.513
2015/05/01,10:50:01,285,286,288,1.1,1.4,1.6,22.4,63.6,1006.7,0.00,0,0.0,////,0.0,0,0.0,////,25.3,0.0,12.3,3.513
2015/05/01,11:00:01,304,325,344,1.5,2.1,2.7,22.5,62.2,1006.5,0.00,0,0.0,////,0.0,0,0.0,////,26.7,0.0,12.3,3.513
2015/05/01,11:10:01,298,302,307,3.1,3.5,4.1,22.8,62.3,1006.5,0.00,0,0.0,////,0.0,0,0.0,////,26.7,0.0,12.3,3.511
2015/05/01,11:20:01,245,275,318,1.4,1.7,2.1,22.6,61.3,1006.6,0.00,0,0.0,////,0.0,0,0.0,////,27.2,0.0,12.3,3.511
2015/05/01,11:30:01,281,285,290,4.0,4.1,4.2,23.0,60.4,1006.6,0.00,0,0.0,////,0.0,0,0.0,////,27.5,0.0,12.3,3.511
2015/05/01,11:40:01,295,304,320,2.2,2.5,2.6,22.9,60.5,1006.5,0.00,0,0.0,////,0.0,0,0.0,////,27.0,0.0,12.3,3.514
2015/05/01,11:50:01,230,244,272,1.1,1.4,1.8,23.0,63.3,1006.4,0.00,0,0.0,////,0.0,0,0.0,////,27.0,0.0,12.3,3.513
2015/05/01,12:00:01,292,296,302,4.1,4.3,4.5,23.1,61.0,1006.4,0.00,0,0.0,////,0.0,0,0.0,////,27.7,0.0,12.3,3.511
2015/05/01,12:10:01,220,231,245,0.3,0.4,0.5,22.5,62.5,1006.2,0.00,0,0.0,////,0.0,0,0.0,////,26.2,0.0,12.3,3.511
2015/05/01,12:20:01,279,281,283,1.0,1.4,1.7,22.3,65.6,1006.2,0.00,0,0.0,////,0.0,0,0.0,////,25.5,0.0,12.3,3.513
2015/05/01,12:30:01,298,307,315,1.1,1.2,1.3,22.8,64.7,1006.1,0.00,0,0.0,////,0.0,0,0.0,////,26.8,0.0,12.3,3.513
2015/05/01,12:40:01,289,295,298,3.4,3.8,4.2,23.0,64.2,1006.0,0.00,0,0.0,////,0.0,0,0.0,////,27.5,0.0,12.3,3.511
2015/05/01,12:50:01,303,312,326,1.4,1.8,2.3,22.9,64.3,1006.1,0.00,0,0.0,////,0.0,0,0.0,////,27.5,0.0,12.3,3.511
2015/05/01,13:00:01,319,330,347,1.6,1.8,2.1,23.2,62.6,1006.1,0.00,0,0.0,////,0.0,0,0.0,////,27.5,0.0,12.3,3.513
2015/05/01,13:10:01,242,251,262,1.9,2.4,3.1,22.7,60.4,1006.0,0.00,0,0.0,////,0.0,0,0.0,////,27.0,0.0,12.3,3.513
2015/05/01,13:20:01,245,262,286,1.0,1.3,1.7,22.9,62.6,1005.9,0.00,0,0.0,////,0.0,0,0.0,////,26.0,0.0,12.3,3.513
2015/05/01,13:30:01,257,264,274,2.0,2.2,2.5,22.6,62.3,1005.8,0.00,0,0.0,////,0.0,0,0.0,////,25.6,0.0,12.3,3.513
2015/05/01,13:40:01,250,286,306,1.0,1.2,1.4,22.3,63.2,1005.5,0.00,0,0.0,////,0.0,0,0.0,////,24.8,0.0,12.3,3.514
2015/05/01,13:50:01,294,296,299,1.9,2.2,2.4,23.1,62.5,1005.6,0.00,0,0.0,////,0.0,0,0.0,////,26.3,0.0,12.3,3.511
2015/05/01,14:00:01,305,321,337,0.8,0.9,1.1,23.3,60.6,1005.5,0.00,0,0.0,////,0.0,0,0.0,////,27.4,0.0,12.3,3.513
2015/05/01,14:10:01,311,323,332,1.2,1.3,1.5,22.8,60.9,1005.4,0.00,0,0.0,////,0.0,0,0.0,////,26.3,0.0,12.3,3.511
2015/05/01,14:20:01,304,310,315,2.4,2.7,3.0,23.2,61.2,1005.4,0.00,0,0.0,////,0.0,0,0.0,////,26.8,0.0,12.3,3.511
2015/05/01,14:30:01,299,303,308,2.5,3.3,4.1,23.1,60.6,1005.3,0.00,0,0.0,////,0.0,0,0.0,////,27.2,0.0,12.3,3.514
2015/05/01,14:40:01,268,309,338,0.5,0.9,1.1,23.3,61.8,1005.3,0.00,0,0.0,////,0.0,0,0.0,////,26.7,0.0,12.3,3.514
2015/05/01,14:50:01,289,306,319,3.0,3.2,3.3,23.2,60.6,1005.3,0.00,0,0.0,////,0.0,0,0.0,////,27.2,0.0,12.3,3.511
2015/05/01,15:00:01,298,315,331,0.8,0.9,1.0,23.2,61.1,1005.2,0.00,0,0.0,////,0.0,0,0.0,////,26.8,0.0,12.3,3.513
2015/05/01,15:10:01,259,282,319,1.3,2.1,2.7,22.9,63.7,1005.1,0.00,0,0.0,////,0.0,0,0.0,////,25.8,0.0,12.3,3.511
2015/05/01,15:20:01,304,311,319,3.1,3.3,3.7,23.1,62.5,1005.0,0.00,0,0.0,////,0.0,0,0.0,////,26.5,0.0,12.3,3.511
2015/05/01,15:30:01,290,294,299,4.4,4.6,4.7,22.9,63.2,1005.0,0.00,0,0.0,////,0.0,0,0.0,////,26.2,0.0,12.3,3.513
2015/05/01,15:40:01,307,316,322,1.8,1.9,2.0,23.2,62.4,1005.0,0.00,0,0.0,////,0.0,0,0.0,////,26.5,0.0,12.3,3.514
2015/05/01,15:50:01,224,258,281,1.0,1.5,1.9,23.3,64.0,1005.0,0.00,0,0.0,////,0.0,0,0.0,////,26.5,0.0,12.3,3.513
2015/05/01,16:00:01,266,277,294,1.7,1.9,2.1,23.1,62.5,1005.1,0.00,0,0.0,////,0.0,0,0.0,////,26.2,0.0,12.3,3.513
2015/05/01,16:10:01,274,283,292,1.0,1.3,1.7,23.3,64.1,1004.9,0.00,0,0.0,////,0.0,0,0.0,////,26.2,0.0,12.3,3.511
2015/05/01,16:20:01,298,301,304,3.6,3.8,3.9,23.1,62.6,1004.9,0.00,0,0.0,////,0.0,0,0.0,////,26.0,0.0,12.3,3.511
2015/05/01,16:30:01,317,327,335,1.1,1.6,2.1,22.7,65.2,1004.9,0.00,0,0.0,////,0.0,0,0.0,////,24.6,0.0,12.3,3.513
2015/05/01,16:40:01,244,250,258,0.8,1.0,1.2,22.5,65.7,1004.9,0.00,0,0.0,////,0.0,0,0.0,////,23.7,0.0,12.3,3.511
2015/05/01,16:50:01,302,305,307,1.9,2.1,2.4,22.4,68.1,1004.9,0.00,0,0.0,////,0.0,0,0.0,////,23.4,0.0,12.3,3.510
2015/05/01,17:00:01,248,276,318,0.2,0.3,0.3,22.3,67.8,1004.9,0.00,0,0.0,////,0.0,0,0.0,////,23.2,0.0,12.3,3.513
2015/05/01,17:10:01,276,298,318,1.1,1.2,1.3,22.0,68.5,1004.9,0.00,0,0.0,////,0.0,0,0.0,////,22.0,0.0,12.3,3.513
2015/05/01,17:20:01,290,300,308,2.0,2.3,2.5,21.8,69.3,1005.0,0.00,0,0.0,////,0.0,0,0.0,////,22.0,0.0,12.3,3.513
2015/05/01,17:30:01,312,327,337,0.8,1.1,1.4,21.7,69.8,1004.9,0.00,0,0.0,////,0.0,0,0.0,////,21.7,0.0,12.3,3.510
2015/05/01,17:40:01,300,302,305,1.1,1.8,2.3,21.7,70.9,1005.0,0.00,0,0.0,////,0.0,0,0.0,////,21.5,0.0,12.3,3.511
2015/05/01,17:50:01,305,334,348,0.6,0.7,1.0,21.9,70.0,1005.1,0.00,0,0.0,////,0.0,0,0.0,////,22.2,0.0,12.3,3.513
2015/05/01,18:00:01,314,316,319,0.7,0.9,1.0,21.7,70.6,1005.2,0.00,0,0.0,////,0.0,0,0.0,////,21.7,0.0,12.2,3.513
2015/05/01,18:10:01,290,292,296,1.7,2.0,2.2,21.6,71.1,1005.3,0.00,0,0.0,////,0.0,0,0.0,////,21.0,0.0,12.3,3.513
2015/05/01,18:20:01,300,306,315,1.5,1.8,2.0,21.5,71.0,1005.4,0.00,0,0.0,////,0.0,0,0.0,////,20.8,0.0,12.3,3.514
2015/05/01,18:30:01,301,306,310,1.2,1.4,1.5,21.4,70.0,1005.5,0.00,0,0.0,////,0.0,0,0.0,////,20.8,0.0,12.3,3.514
2015/05/01,18:40:01,278,286,291,0.9,1.1,1.3,21.2,69.5,1005.5,0.00,0,0.0,////,0.0,0,0.0,////,20.3,0.0,12.3,3.513
2015/05/01,18:50:01,181,186,189,0.5,0.6,0.7,21.1,69.4,1005.6,0.00,0,0.0,////,0.0,0,0.0,////,20.0,0.0,12.3,3.513
2015/05/01,19:00:01,254,265,272,0.8,0.8,0.9,20.9,69.7,1005.7,0.00,0,0.0,////,0.0,0,0.0,////,19.4,0.0,12.3,3.514
2015/05/01,19:10:01,268,278,295,0.3,0.4,0.5,20.9,70.2,1005.8,0.00,0,0.0,////,0.0,0,0.0,////,19.1,0.0,12.3,3.511
2015/05/01,19:20:01,253,272,281,0.0,0.1,0.2,20.8,70.0,1005.7,0.00,0,0.0,////,0.0,0,0.0,////,19.1,0.0,12.2,3.513
2015/05/01,19:30:01,249,256,268,0.1,0.3,0.4,20.8,70.5,1005.8,0.00,0,0.0,////,0.0,0,0.0,////,18.9,0.0,12.3,3.513
2015/05/01,19:40:01,008,012,016,0.8,0.8,1.0,20.7,71.1,1005.9,0.00,0,0.0,////,0.0,0,0.0,////,18.9,0.0,12.3,3.513
2015/05/01,19:50:01,297,303,306,1.2,1.4,1.6,20.7,71.0,1006.1,0.00,0,0.0,////,0.0,0,0.0,////,19.4,0.0,12.3,3.513
2015/05/01,20:00:01,287,307,318,0.3,0.6,0.8,20.7,71.4,1006.2,0.00,0,0.0,////,0.0,0,0.0,////,19.1,0.0,12.3,3.513
2015/05/01,20:10:01,219,239,263,0.3,0.4,0.5,20.7,71.7,1006.3,0.00,0,0.0,////,0.0,0,0.0,////,18.9,0.0,12.3,3.513
2015/05/01,20:20:01,290,304,318,0.5,0.7,0.8,20.7,72.0,1006.5,0.00,0,0.0,////,0.0,0,0.0,////,19.1,0.0,12.3,3.513
2015/05/01,20:30:01,277,305,349,0.1,0.1,0.2,20.7,72.2,1006.6,0.00,0,0.0,////,0.0,0,0.0,////,19.1,0.0,12.3,3.514
2015/05/01,20:40:01,232,233,234,0.5,0.7,0.9,20.7,72.3,1006.7,0.00,0,0.0,////,0.0,0,0.0,////,18.9,0.0,12.3,3.513
2015/05/01,20:50:01,234,239,244,0.7,0.8,0.9,20.6,72.6,1006.9,0.00,0,0.0,////,0.0,0,0.0,////,18.7,0.0,12.3,3.513
2015/05/01,21:00:01,291,295,302,0.3,0.4,0.4,20.7,73.4,1006.8,0.00,0,0.0,////,0.0,0,0.0,////,18.7,0.0,12.2,3.514
2015/05/01,21:10:01,212,229,261,0.2,0.3,0.5,20.6,73.8,1007.0,0.00,0,0.0,////,0.0,0,0.0,////,18.7,0.0,12.3,3.513
2015/05/01,21:20:01,175,214,247,0.1,0.3,0.5,20.6,74.3,1007.0,0.00,0,0.0,////,0.0,0,0.0,////,18.7,0.0,12.3,3.513
2015/05/01,21:30:01,211,212,213,1.4,1.5,1.6,20.6,74.7,1007.1,0.00,0,0.0,////,0.0,0,0.0,////,18.9,0.0,12.3,3.513
2015/05/01,21:40:01,179,188,192,1.0,1.1,1.3,20.3,76.5,1007.1,0.00,0,0.0,////,0.0,0,0.0,////,18.6,0.0,12.3,3.514
2015/05/01,21:50:01,207,209,212,0.8,0.9,0.9,20.1,77.7,1007.2,0.00,0,0.0,////,0.0,0,0.0,////,18.6,0.0,12.3,3.511
2015/05/01,22:00:01,280,289,299,0.3,0.4,0.5,20.1,77.4,1007.1,0.00,0,0.0,////,0.0,0,0.0,////,18.4,0.0,12.2,3.513
2015/05/01,22:10:01,218,219,220,1.0,1.1,1.2,20.1,77.0,1007.1,0.00,0,0.0,////,0.0,0,0.0,////,18.2,0.0,12.3,3.513
2015/05/01,22:20:01,230,233,234,1.0,1.1,1.2,20.2,76.3,1007.2,0.00,0,0.0,////,0.0,0,0.0,////,18.4,0.0,12.3,3.513
2015/05/01,22:30:01,211,212,213,0.9,1.0,1.0,20.3,76.1,1007.2,0.00,0,0.0,////,0.0,0,0.0,////,18.6,0.0,12.3,3.513
2015/05/01,22:40:01,196,198,200,1.2,1.2,1.3,20.1,76.5,1007.2,0.00,0,0.0,////,0.0,0,0.0,////,18.6,0.0,12.3,3.513
2015/05/01,22:50:01,231,237,242,0.4,0.5,0.5,20.1,76.6,1007.1,0.00,0,0.0,////,0.0,0,0.0,////,18.4,0.0,12.3,3.513
2015/05/01,23:00:01,231,237,242,0.6,0.7,0.8,20.2,76.3,1007.1,0.00,0,0.0,////,0.0,0,0.0,////,18.6,0.0,12.3,3.513
2015/05/01,23:10:01,222,225,229,1.1,1.2,1.3,20.2,76.2,1007.2,0.00,0,0.0,////,0.0,0,0.0,////,18.6,0.0,12.3,3.513
2015/05/01,23:20:01,225,230,234,0.6,0.7,0.8,20.2,76.7,1007.3,0.00,0,0.0,////,0.0,0,0.0,////,18.4,0.0,12.3,3.513
2015/05/01,23:30:01,208,208,209,1.4,1.5,1.5,20.1,77.1,1007.2,0.00,0,0.0,////,0.0,0,0.0,////,18.2,0.0,12.3,3.515
2015/05/01,23:40:01,190,191,192,1.1,1.2,1.2,20.0,77.5,1007.2,0.00,0,0.0,////,0.0,0,0.0,////,18.2,0.0,12.1,3.513
2015/05/01,23:50:01,185,188,189,1.1,1.2,1.3,19.8,78.7,1007.1,0.00,0,0.0,////,0.0,0,0.0,////,17.9,0.0,12.3,3.514
2015/05/02,00:00:01,196,196,197,0.8,0.8,0.9,19.9,78.7,1007.0,0.00,0,0.0,////,0.0,0,0.0,////,18.2,0.0,12.3,3.514
2015/05/02,00:10:01,202,203,204,1.3,1.4,1.5,20.0,78.1,1006.9,0.00,0,0.0,////,0.0,0,0.0,////,18.1,0.0,12.3,3.514
2015/05/02,00:20:01,190,191,192,1.1,1.1,1.2,20.0,77.9,1006.8,0.00,0,0.0,////,0.0,0,0.0,////,18.1,0.0,12.3,3.513
2015/05/02,00:30:01,194,196,196,1.2,1.2,1.3,19.8,78.7,1006.8,0.00,0,0.0,////,0.0,0,0.0,////,18.1,0.0,12.3,3.513
2015/05/02,00:40:01,194,194,195,1.2,1.4,1.5,19.8,78.6,1006.8,0.00,0,0.0,////,0.0,0,0.0,////,18.1,0.0,12.3,3.513
2015/05/02,00:50:01,195,196,196,1.2,1.2,1.3,19.9,78.4,1006.6,0.00,0,0.0,////,0.0,0,0.0,////,17.9,0.0,12.3,3.514
2015/05/02,01:00:01,200,201,204,1.2,1.3,1.4,19.9,78.2,1006.6,0.00,0,0.0,////,0.0,0,0.0,////,18.1,0.0,12.4,3.513
2015/05/02,01:10:01,194,194,194,1.4,1.4,1.5,19.8,78.6,1006.5,0.00,0,0.0,////,0.0,0,0.0,////,18.1,0.0,12.3,3.513
2015/05/02,01:20:01,194,194,195,1.4,1.5,1.6,19.6,79.3,1006.5,0.00,0,0.0,////,0.0,0,0.0,////,17.7,0.0,12.3,3.514
2015/05/02,01:30:01,192,192,193,1.1,1.2,1.3,19.5,80.1,1006.5,0.00,0,0.0,////,0.0,0,0.0,////,17.7,0.0,12.3,3.515
2015/05/02,01:40:01,184,186,186,1.3,1.4,1.4,19.4,80.1,1006.4,0.00,0,0.0,////,0.0,0,0.0,////,17.9,0.0,12.3,3.513
2015/05/02,01:50:01,192,193,193,1.3,1.3,1.4,19.4,80.5,1006.3,0.00,0,0.0,////,0.0,0,0.0,////,17.5,0.0,12.3,3.514
2015/05/02,02:00:01,195,196,197,1.4,1.5,1.5,19.5,80.0,1006.4,0.00,0,0.0,////,0.0,0,0.0,////,17.4,0.0,12.3,3.513
2015/05/02,02:10:01,196,196,198,1.3,1.4,1.5,19.5,79.8,1006.4,0.00,0,0.0,////,0.0,0,0.0,////,17.7,0.0,12.3,3.514
2015/05/02,02:20:01,191,191,192,1.3,1.3,1.4,19.5,79.7,1006.4,0.00,0,0.0,////,0.0,0,0.0,////,17.7,0.0,12.3,3.513
2015/05/02,02:30:01,190,191,192,1.3,1.3,1.4,19.4,80.0,1006.3,0.00,0,0.0,////,0.0,0,0.0,////,17.5,0.0,12.3,3.513
2015/05/02,02:40:01,183,183,183,1.3,1.4,1.5,19.5,79.6,1006.2,0.00,0,0.0,////,0.0,0,0.0,////,17.7,0.0,12.3,3.513
2015/05/02,02:50:01,188,189,189,1.2,1.2,1.3,19.4,80.1,1006.1,0.00,0,0.0,////,0.0,0,0.0,////,17.7,0.0,12.3,3.513
2015/05/02,03:00:01,197,197,197,1.6,1.6,1.7,19.5,79.7,1005.9,0.00,0,0.0,////,0.0,0,0.0,////,17.9,0.0,12.3,3.513
2015/05/02,03:10:01,191,192,194,1.3,1.3,1.4,19.3,80.6,1005.9,0.00,0,0.0,////,0.0,0,0.0,////,17.5,0.0,12.3,3.514
2015/05/02,03:20:01,183,184,184,0.9,1.0,1.0,19.4,80.3,1005.9,0.00,0,0.0,////,0.0,0,0.0,////,17.4,0.0,12.3,3.511
2015/05/02,03:30:01,182,182,182,0.9,1.0,1.0,19.4,79.5,1006.0,0.00,0,0.0,////,0.0,0,0.0,////,17.5,0.0,12.3,3.513
2015/05/02,03:40:01,191,191,192,1.0,1.0,1.1,19.5,79.2,1006.0,0.00,0,0.0,////,0.0,0,0.0,////,17.5,0.0,12.3,3.514
2015/05/02,03:50:01,192,194,195,0.8,0.8,0.9,19.6,79.4,1006.0,0.00,0,0.0,////,0.0,0,0.0,////,17.5,0.0,12.3,3.515
2015/05/02,04:00:01,188,190,192,1.1,1.2,1.2,19.7,79.7,1006.0,0.00,0,0.0,////,0.0,0,0.0,////,17.5,0.0,12.3,3.514
2015/05/02,04:10:01,193,193,194,1.1,1.1,1.2,19.5,79.8,1005.8,0.00,0,0.0,////,0.0,0,0.0,////,17.5,0.0,12.3,3.514
2015/05/02,04:20:01,169,169,169,0.5,0.6,0.7,19.4,80.2,1005.8,0.00,0,0.0,////,0.0,0,0.0,////,17.5,0.0,12.3,3.514
2015/05/02,04:30:01,206,206,207,1.0,1.1,1.1,19.5,80.0,1006.0,0.00,0,0.0,////,0.0,0,0.0,////,17.4,0.0,12.3,3.513
2015/05/02,04:40:01,205,207,210,1.2,1.4,1.5,19.6,79.6,1006.0,0.00,0,0.0,////,0.0,0,0.0,////,17.7,0.0,12.3,3.513
2015/05/02,04:50:01,196,197,198,1.5,1.6,1.7,19.2,80.5,1006.0,0.00,0,0.0,////,0.0,0,0.0,////,17.4,0.0,12.3,3.513
2015/05/02,05:00:01,185,187,189,1.1,1.2,1.3,18.9,82.1,1006.1,0.00,0,0.0,////,0.0,0,0.0,////,17.2,0.0,12.3,3.514
2015/05/02,05:10:01,184,185,185,1.1,1.1,1.2,18.9,82.2,1006.2,0.00,0,0.0,////,0.0,0,0.0,////,16.9,0.0,12.3,3.513
2015/05/02,05:20:01,173,173,174,1.1,1.2,1.2,19.0,80.6,1006.0,0.00,0,0.0,////,0.0,0,0.0,////,17.2,0.0,12.3,3.511
2015/05/02,05:30:01,180,181,182,1.0,1.0,1.1,19.0,79.9,1006.1,0.00,0,0.0,////,0.0,0,0.0,////,17.2,0.0,12.3,3.511
2015/05/02,05:40:01,194,195,196,1.3,1.4,1.5,19.2,77.8,1006.3,0.00,0,0.0,////,0.0,0,0.0,////,17.2,0.0,12.3,3.513
2015/05/02,05:50:01,177,177,177,1.1,1.1,1.2,19.2,78.1,1006.4,0.00,0,0.0,////,0.0,0,0.0,////,17.4,0.0,12.3,3.515
2015/05/02,06:00:01,188,188,188,1.1,1.1,1.2,19.1,78.9,1006.4,0.00,0,0.0,////,0.0,0,0.0,////,17.4,0.0,12.3,3.514
2015/05/02,06:10:01,178,179,179,0.6,0.6,0.7,19.3,78.3,1006.4,0.00,0,0.0,////,0.0,0,0.0,////,17.7,0.0,12.3,3.513
2015/05/02,06:20:01,161,162,163,0.4,0.5,0.6,19.5,77.3,1006.3,0.00,0,0.0,////,0.0,0,0.0,////,18.4,0.0,12.3,3.511
2015/05/02,06:30:01,168,169,170,0.5,0.6,0.7,19.7,77.4,1006.4,0.00,0,0.0,////,0.0,0,0.0,////,19.3,0.0,12.3,3.511
2015/05/02,06:40:01,173,173,173,0.5,0.5,0.6,20.1,76.5,1006.4,0.00,0,0.0,////,0.0,0,0.0,////,20.3,0.0,12.3,3.513
2015/05/02,06:50:01,162,174,188,0.3,0.4,0.5,20.3,77.0,1006.5,0.00,0,0.0,////,0.0,0,0.0,////,21.3,0.0,12.3,3.514
2015/05/02,07:00:01,196,201,206,0.1,0.2,0.3,20.8,78.6,1006.6,0.00,0,0.0,////,0.0,0,0.0,////,22.5,0.0,12.3,3.513
2015/05/02,07:10:01,120,122,124,0.4,0.5,0.6,21.1,74.0,1006.8,0.00,0,0.0,////,0.0,0,0.0,////,23.9,0.0,12.2,3.513
2015/05/02,07:20:01,202,204,205,0.2,0.3,0.4,21.7,70.2,1006.8,0.00,0,0.0,////,0.0,0,0.0,////,25.1,0.0,12.3,3.513
2015/05/02,07:30:01,094,106,124,0.5,0.6,0.7,22.4,68.3,1006.9,0.00,0,0.0,////,0.0,0,0.0,////,26.0,0.0,12.3,3.513
2015/05/02,07:40:01,028,036,051,0.1,0.3,0.4,22.2,67.9,1006.9,0.00,0,0.0,////,0.0,0,0.0,////,26.2,0.0,12.3,3.513
2015/05/02,07:50:01,097,107,116,0.2,0.3,0.4,22.3,69.1,1007.1,0.00,0,0.0,////,0.0,0,0.0,////,26.2,0.0,12.3,3.513
2015/05/02,08:00:01,018,020,022,1.4,1.4,1.5,21.9,68.8,1007.1,0.00,0,0.0,////,0.0,0,0.0,////,26.0,0.0,12.3,3.511
2015/05/02,08:10:01,287,300,306,0.2,0.4,0.5,22.5,68.9,1007.3,0.00,0,0.0,////,0.0,0,0.0,////,26.7,0.0,12.3,3.513
2015/05/02,08:20:01,093,098,106,1.2,1.3,1.4,22.4,69.3,1007.2,0.00,0,0.0,////,0.0,0,0.0,////,26.3,0.0,12.3,3.513
2015/05/02,08:30:01,090,096,101,1.5,1.7,1.9,22.2,71.5,1007.3,0.00,0,0.0,////,0.0,0,0.0,////,25.6,0.0,12.3,3.514
2015/05/02,08:40:01,087,092,096,1.9,2.1,2.3,22.2,72.1,1007.3,0.00,0,0.0,////,0.0,0,0.0,////,25.6,0.0,12.3,3.511
2015/05/02,08:50:01,086,090,095,2.5,2.9,3.3,22.3,72.8,1007.3,0.00,0,0.0,////,0.0,0,0.0,////,25.8,0.0,12.3,3.511
2015/05/02,09:00:01,086,091,099,2.2,2.4,2.5,22.1,70.8,1007.3,0.00,0,0.0,////,0.0,0,0.0,////,25.5,0.0,12.3,3.514
2015/05/02,09:10:01,062,064,064,1.3,1.4,1.6,22.5,71.2,1007.3,0.00,0,0.0,////,0.0,0,0.0,////,25.6,0.0,12.3,3.511
2015/05/02,09:20:01,081,085,089,2.0,2.2,2.4,22.4,71.2,1007.4,0.00,0,0.0,////,0.0,0,0.0,////,25.8,0.0,12.3,3.513
2015/05/02,09:30:01,104,108,111,2.5,2.7,3.0,22.5,70.3,1007.4,0.00,0,0.0,////,0.0,0,0.0,////,26.0,0.0,12.2,3.514
2015/05/02,09:40:01,020,035,046,1.6,1.8,2.1,22.6,69.6,1007.3,0.00,0,0.0,////,0.0,0,0.0,////,25.6,0.0,12.3,3.513
2015/05/02,09:50:01,072,080,096,2.7,3.4,4.2,22.8,70.2,1007.3,0.00,0,0.0,////,0.0,0,0.0,////,25.8,0.0,12.3,3.514
2015/05/02,10:00:01,062,075,098,3.0,3.9,4.9,22.9,70.8,1007.3,0.00,0,0.0,////,0.0,0,0.0,////,25.5,0.0,12.3,3.513
2015/05/02,10:10:01,097,104,115,2.4,3.6,4.5,23.0,71.0,1007.2,0.00,0,0.0,////,0.0,0,0.0,////,25.5,0.0,12.3,3.513
2015/05/02,10:20:01,112,113,116,3.9,4.3,4.8,22.9,70.4,1007.2,0.00,0,0.0,////,0.0,0,0.0,////,25.5,0.0,12.3,3.513
2015/05/02,10:30:01,114,122,126,2.6,3.2,3.7,23.3,70.6,1007.1,0.00,0,0.0,////,0.0,0,0.0,////,25.6,0.0,12.3,3.511
2015/05/02,10:40:01,078,099,114,3.2,3.4,3.6,23.3,69.2,1007.0,0.00,0,0.0,////,0.0,0,0.0,////,25.6,0.0,12.3,3.513